DAL1121 KATL-KSAT

Flight info

Callsign DAL1121
Flight time N/A
Altitude 34000
Route POUNC2 STEIT AEX CAAGE QERVO3
Aircraft A321/M-SDE3FGHIRWY/LB1

Departure

Time 2026-05-06 13:35
Airport Hartsfield Jackson Atlanta International Airport (KATL)

Arrival

Time N/A
Airport San Antonio International Airport (KSAT)
Time Latitude Longitude Altitude Speed Heading
2026-05-06 13:14 33.64289 -84.43324 1036 ft 0 kts 90°
2026-05-06 13:25 33.64289 -84.43326 1035 ft 2 kts 90°
2026-05-06 13:25 33.64288 -84.43355 1035 ft 4 kts 80°
2026-05-06 13:26 33.64279 -84.43383 1035 ft 4 kts 42°
2026-05-06 13:26 33.64260 -84.43394 1035 ft 1 kts
2026-05-06 13:26 33.64259 -84.43394 1035 ft 0 kts 360°
2026-05-06 13:28 33.64289 -84.43394 1035 ft 8 kts 360°
2026-05-06 13:28 33.64361 -84.43395 1035 ft 11 kts 360°
2026-05-06 13:29 33.64429 -84.43392 1035 ft 9 kts 12°
2026-05-06 13:29 33.64460 -84.43318 1036 ft 14 kts 89°
2026-05-06 13:29 33.64460 -84.43177 1036 ft 20 kts 90°
2026-05-06 13:29 33.64460 -84.43005 1036 ft 20 kts 90°
2026-05-06 13:30 33.64460 -84.42844 1035 ft 19 kts 90°
2026-05-06 13:30 33.64469 -84.42694 1035 ft 17 kts 85°
2026-05-06 13:30 33.64470 -84.42557 1035 ft 16 kts 90°
2026-05-06 13:30 33.64470 -84.42429 1035 ft 16 kts 90°
2026-05-06 13:31 33.64472 -84.42278 1035 ft 21 kts 80°
2026-05-06 13:31 33.64535 -84.42122 1035 ft 20 kts 69°
2026-05-06 13:31 33.64543 -84.41938 1035 ft 25 kts 90°
2026-05-06 13:31 33.64543 -84.41723 1036 ft 25 kts 90°
2026-05-06 13:32 33.64543 -84.41521 1036 ft 23 kts 90°
2026-05-06 13:32 33.64542 -84.41330 1036 ft 22 kts 90°
2026-05-06 13:32 33.64543 -84.41151 1036 ft 21 kts 90°
2026-05-06 13:32 33.64543 -84.40985 1035 ft 20 kts 90°
2026-05-06 13:33 33.64551 -84.40827 1035 ft 18 kts 73°
2026-05-06 13:33 33.64571 -84.40687 1034 ft 14 kts 89°
2026-05-06 13:33 33.64588 -84.40585 1034 ft 12 kts 43°
2026-05-06 13:33 33.64666 -84.40575 1033 ft 9 kts 348°
2026-05-06 13:34 33.64679 -84.40623 1033 ft 7 kts 271°
2026-05-06 13:34 33.64679 -84.40797 1034 ft 50 kts 269°
2026-05-06 13:34 33.64679 -84.41483 1038 ft 112 kts 270°
2026-05-06 13:34 33.64679 -84.42623 1035 ft 159 kts 270°
2026-05-06 13:35 33.64678 -84.44023 1432 ft 168 kts 266°
2026-05-06 13:35 33.64684 -84.45420 2120 ft 167 kts 271°
2026-05-06 13:35 33.64912 -84.46788 2775 ft 166 kts 277°
2026-05-06 13:35 33.65164 -84.48194 2993 ft 183 kts 278°
2026-05-06 13:36 33.65447 -84.49774 3145 ft 205 kts 279°
2026-05-06 13:36 33.65765 -84.51555 3339 ft 232 kts 279°
2026-05-06 13:36 33.66118 -84.53503 3911 ft 244 kts 279°
2026-05-06 13:36 33.66486 -84.55510 4660 ft 248 kts 280°
2026-05-06 13:37 33.66857 -84.57540 5418 ft 250 kts 280°
2026-05-06 13:37 33.67226 -84.59584 6163 ft 251 kts 280°
2026-05-06 13:37 33.67581 -84.61648 6849 ft 254 kts 279°
2026-05-06 13:37 33.67932 -84.63733 7540 ft 256 kts 279°
2026-05-06 13:38 33.68286 -84.65835 8235 ft 257 kts 278°
2026-05-06 13:38 33.68640 -84.67941 8929 ft 258 kts 278°
2026-05-06 13:38 33.68997 -84.70061 9625 ft 260 kts 277°
2026-05-06 13:38 33.69346 -84.72164 10214 ft 262 kts 275°
2026-05-06 13:39 33.69414 -84.74413 10346 ft 278 kts 262°
2026-05-06 13:39 33.68982 -84.76749 10467 ft 296 kts 250°
2026-05-06 13:39 33.68049 -84.79037 10611 ft 315 kts 238°
2026-05-06 13:39 33.66724 -84.81184 11015 ft 323 kts 235°
2026-05-06 13:40 33.65370 -84.83353 11569 ft 326 kts 236°
2026-05-06 13:40 33.64015 -84.85550 12174 ft 329 kts 236°
2026-05-06 13:40 33.62653 -84.87763 12816 ft 331 kts 236°
2026-05-06 13:40 33.61283 -84.89987 13428 ft 333 kts 236°
2026-05-06 13:41 33.59902 -84.92225 14039 ft 334 kts 236°
2026-05-06 13:41 33.58511 -84.94470 14584 ft 336 kts 237°
2026-05-06 13:41 33.57109 -84.96728 15083 ft 340 kts 237°
2026-05-06 13:41 33.55689 -84.99013 15586 ft 343 kts 237°
2026-05-06 13:42 33.54262 -85.01308 16123 ft 345 kts 237°
2026-05-06 13:42 33.52825 -85.03621 16664 ft 347 kts 238°
2026-05-06 13:42 33.51380 -85.05944 17199 ft 348 kts 238°
2026-05-06 13:42 33.49928 -85.08273 17740 ft 350 kts 238°
2026-05-06 13:43 33.48468 -85.10614 18256 ft 352 kts 238°
2026-05-06 13:43 33.47001 -85.12970 18693 ft 354 kts 239°
2026-05-06 13:43 33.45523 -85.15343 19111 ft 357 kts 239°
2026-05-06 13:43 33.44035 -85.17730 19516 ft 359 kts 239°
2026-05-06 13:44 33.42593 -85.20172 19904 ft 358 kts 245°
2026-05-06 13:44 33.41530 -85.22845 20292 ft 355 kts 255°
2026-05-06 13:44 33.40815 -85.25668 20690 ft 355 kts 257°
2026-05-06 13:44 33.40121 -85.28517 21094 ft 358 kts 257°
2026-05-06 13:45 33.39422 -85.31381 21466 ft 360 kts 258°
2026-05-06 13:45 33.38001 -85.37155 22261 ft 364 kts 258°
2026-05-06 13:45 33.37276 -85.40071 22644 ft 366 kts 258°
2026-05-06 13:46 33.36544 -85.43003 23029 ft 369 kts 258°
2026-05-06 13:46 33.35811 -85.45945 23447 ft 370 kts 258°
2026-05-06 13:46 33.35076 -85.48898 23803 ft 371 kts 258°
2026-05-06 13:46 33.34338 -85.51865 24103 ft 373 kts 258°
2026-05-06 13:47 33.33595 -85.54848 24374 ft 376 kts 258°
2026-05-06 13:47 33.32845 -85.57854 24652 ft 378 kts 258°
2026-05-06 13:47 33.32089 -85.60883 24932 ft 381 kts 258°
2026-05-06 13:47 33.31329 -85.63926 25210 ft 384 kts 258°
2026-05-06 13:48 33.30572 -85.66952 25475 ft 386 kts 258°
2026-05-06 13:48 33.29801 -85.70035 25739 ft 389 kts 258°
2026-05-06 13:48 33.29023 -85.73140 26001 ft 391 kts 258°
2026-05-06 13:48 33.28241 -85.76266 26262 ft 394 kts 258°
2026-05-06 13:49 33.27451 -85.79409 26524 ft 396 kts 258°
2026-05-06 13:49 33.26655 -85.82572 26773 ft 399 kts 258°
2026-05-06 13:49 33.25852 -85.85754 27027 ft 401 kts 257°
2026-05-06 13:49 33.25044 -85.88955 27273 ft 403 kts 257°
2026-05-06 13:50 33.24232 -85.92171 27501 ft 406 kts 257°
2026-05-06 13:50 33.23416 -85.95406 27732 ft 408 kts 257°
2026-05-06 13:50 33.22595 -85.98658 27958 ft 410 kts 257°
2026-05-06 13:50 33.21769 -86.01930 28199 ft 413 kts 257°
2026-05-06 13:51 33.20932 -86.05219 28437 ft 415 kts 257°
2026-05-06 13:51 33.20089 -86.08523 28670 ft 417 kts 257°
2026-05-06 13:51 33.19240 -86.11843 28901 ft 419 kts 257°
2026-05-06 13:51 33.18391 -86.15181 29145 ft 421 kts 257°
2026-05-06 13:52 33.17540 -86.18520 29471 ft 420 kts 257°
2026-05-06 13:52 33.16687 -86.21854 29846 ft 419 kts 257°
2026-05-06 13:52 33.15838 -86.25170 30235 ft 418 kts 257°
2026-05-06 13:52 33.14994 -86.28482 30512 ft 417 kts 257°
2026-05-06 13:53 33.14151 -86.31787 30808 ft 416 kts 257°
2026-05-06 13:53 33.13306 -86.35080 31122 ft 414 kts 257°
2026-05-06 13:53 33.12473 -86.38314 31435 ft 413 kts 257°
2026-05-06 13:53 33.11630 -86.41581 31756 ft 411 kts 257°
2026-05-06 13:54 33.10792 -86.44834 32077 ft 409 kts 257°
2026-05-06 13:54 33.09960 -86.48059 32506 ft 403 kts 258°
2026-05-06 13:54 33.09136 -86.51219 32990 ft 397 kts 258°
2026-05-06 13:54 33.08316 -86.54348 33344 ft 394 kts 258°
2026-05-06 13:55 33.07509 -86.57460 33648 ft 392 kts 258°
2026-05-06 13:55 33.06716 -86.60547 33972 ft 388 kts 258°
2026-05-06 13:55 33.05154 -86.66608 34046 ft 379 kts 258°
2026-05-06 13:56 33.03604 -86.72585 34023 ft 377 kts 258°
2026-05-06 13:56 33.02048 -86.78546 34024 ft 377 kts 258°
2026-05-06 13:57 33.00489 -86.84507 34010 ft 377 kts 258°
2026-05-06 13:57 32.98929 -86.90462 34011 ft 377 kts 258°
2026-05-06 13:58 32.97366 -86.96423 34023 ft 377 kts 258°
2026-05-06 13:58 32.95804 -87.02367 34029 ft 376 kts 258°
2026-05-06 13:59 32.94241 -87.08290 34030 ft 375 kts 257°
2026-05-06 13:59 32.92678 -87.14207 34032 ft 374 kts 258°
2026-05-06 14:00 32.91119 -87.20118 34023 ft 374 kts 258°
2026-05-06 14:00 32.89559 -87.26014 34025 ft 374 kts 258°
2026-05-06 14:01 32.88028 -87.31757 34026 ft 374 kts 257°
2026-05-06 14:01 32.86456 -87.37646 34043 ft 373 kts 257°
2026-05-06 14:02 32.84905 -87.43478 34016 ft 372 kts 257°
2026-05-06 14:02 32.83341 -87.49334 34020 ft 371 kts 257°
2026-05-06 14:03 32.81775 -87.55177 34020 ft 371 kts 257°
2026-05-06 14:03 32.80201 -87.61014 34014 ft 371 kts 257°
2026-05-06 14:04 32.78630 -87.66849 34014 ft 371 kts 257°
2026-05-06 14:04 32.77060 -87.72683 34037 ft 371 kts 257°
2026-05-06 14:05 32.75482 -87.78506 34031 ft 370 kts 256°
2026-05-06 14:05 32.73910 -87.84313 34027 ft 369 kts 257°
2026-05-06 14:06 32.72300 -87.90099 34005 ft 369 kts 256°
2026-05-06 14:06 32.70644 -87.95656 34020 ft 369 kts 255°
2026-05-06 14:07 32.68922 -88.01359 34017 ft 369 kts 255°
2026-05-06 14:07 32.67850 -88.04938 34007 ft 369 kts 255°
2026-05-06 14:08 32.66136 -88.10686 34002 ft 369 kts 255°
2026-05-06 14:08 32.64423 -88.16431 34006 ft 369 kts 255°
2026-05-06 14:09 32.63050 -88.21049 33994 ft 369 kts 255°
2026-05-06 14:09 32.61339 -88.26790 34005 ft 369 kts 255°
2026-05-06 14:10 32.59629 -88.32489 33984 ft 370 kts 255°
2026-05-06 14:10 32.57895 -88.38243 33998 ft 371 kts 255°
2026-05-06 14:11 32.56156 -88.44018 34011 ft 372 kts 255°
2026-05-06 14:11 32.54422 -88.49810 34012 ft 373 kts 255°
2026-05-06 14:12 32.52674 -88.55611 34012 ft 374 kts 254°
2026-05-06 14:12 32.50914 -88.61422 34015 ft 375 kts 254°
2026-05-06 14:13 32.49150 -88.67239 34009 ft 375 kts 254°
2026-05-06 14:13 32.47385 -88.73063 34002 ft 376 kts 254°
2026-05-06 14:14 32.45616 -88.78890 33978 ft 376 kts 254°
2026-05-06 14:14 32.43843 -88.84710 33962 ft 376 kts 254°
2026-05-06 14:15 32.42060 -88.90533 33936 ft 377 kts 254°
2026-05-06 14:15 32.40273 -88.96365 33913 ft 377 kts 254°
2026-05-06 14:16 32.38487 -89.02204 33948 ft 378 kts 254°
2026-05-06 14:16 32.36703 -89.08006 33947 ft 378 kts 254°
2026-05-06 14:17 32.34908 -89.13838 33944 ft 377 kts 254°
2026-05-06 14:17 32.33117 -89.19664 33943 ft 377 kts 254°
2026-05-06 14:18 32.31321 -89.25473 33957 ft 375 kts 253°
2026-05-06 14:18 32.29525 -89.31258 33960 ft 374 kts 253°
2026-05-06 14:19 32.27737 -89.37030 33978 ft 374 kts 253°
2026-05-06 14:19 32.25946 -89.42800 33977 ft 374 kts 253°
2026-05-06 14:20 32.24155 -89.48557 33970 ft 373 kts 253°
2026-05-06 14:20 32.22361 -89.54309 33969 ft 373 kts 253°
2026-05-06 14:21 32.20566 -89.60065 33968 ft 373 kts 253°
2026-05-06 14:21 32.18768 -89.65815 33966 ft 373 kts 253°
2026-05-06 14:22 32.16967 -89.71563 33972 ft 373 kts 253°
2026-05-06 14:22 32.15161 -89.77310 33971 ft 373 kts 253°
2026-05-06 14:23 32.13364 -89.83016 33968 ft 374 kts 253°
2026-05-06 14:23 32.11550 -89.88760 33968 ft 374 kts 253°
2026-05-06 14:24 32.09734 -89.94505 33970 ft 374 kts 253°
2026-05-06 14:24 32.07923 -90.00248 33981 ft 374 kts 253°
2026-05-06 14:25 32.06109 -90.05985 33978 ft 373 kts 253°
2026-05-06 14:25 32.04295 -90.11702 33999 ft 372 kts 253°
2026-05-06 14:26 32.02484 -90.17400 33989 ft 371 kts 253°
2026-05-06 14:26 32.00681 -90.23082 33992 ft 370 kts 253°
2026-05-06 14:27 31.98869 -90.28755 33989 ft 370 kts 253°
2026-05-06 14:27 31.97049 -90.34421 33986 ft 370 kts 253°
2026-05-06 14:28 31.95232 -90.40084 33973 ft 370 kts 252°
2026-05-06 14:28 31.93418 -90.45750 33974 ft 370 kts 252°
2026-05-06 14:29 31.91601 -90.51409 33978 ft 369 kts 252°
2026-05-06 14:29 31.89792 -90.57023 33977 ft 369 kts 252°
2026-05-06 14:30 31.87972 -90.62671 33967 ft 369 kts 252°
2026-05-06 14:30 31.86147 -90.68319 33968 ft 369 kts 252°
2026-05-06 14:31 31.84316 -90.73969 33971 ft 370 kts 252°
2026-05-06 14:31 31.82483 -90.79613 33992 ft 369 kts 252°
2026-05-06 14:32 31.80655 -90.85249 33994 ft 368 kts 252°
2026-05-06 14:32 31.78827 -90.90871 33969 ft 368 kts 252°
2026-05-06 14:33 31.76998 -90.96487 33969 ft 368 kts 252°
2026-05-06 14:33 31.75161 -91.02106 33964 ft 368 kts 252°
2026-05-06 14:34 31.73323 -91.07722 33962 ft 368 kts 252°
2026-05-06 14:34 31.71489 -91.13298 33963 ft 369 kts 252°
2026-05-06 14:35 31.69640 -91.18914 33983 ft 368 kts 251°
2026-05-06 14:35 31.67801 -91.24521 33975 ft 368 kts 251°
2026-05-06 14:36 31.65962 -91.30116 33972 ft 367 kts 251°
2026-05-06 14:36 31.64121 -91.35705 33971 ft 367 kts 251°
2026-05-06 14:37 31.62276 -91.41287 34007 ft 367 kts 251°
2026-05-06 14:37 31.60424 -91.46872 33999 ft 367 kts 251°
2026-05-06 14:38 31.58575 -91.52451 33991 ft 367 kts 251°
2026-05-06 14:38 31.56726 -91.58022 33988 ft 366 kts 251°
2026-05-06 14:39 31.54876 -91.63576 33980 ft 365 kts 251°
2026-05-06 14:39 31.53024 -91.69118 33968 ft 365 kts 251°
2026-05-06 14:40 31.51177 -91.74650 33958 ft 364 kts 251°
2026-05-06 14:40 31.49331 -91.80177 33934 ft 365 kts 251°
2026-05-06 14:41 31.47472 -91.85715 33929 ft 366 kts 251°
2026-05-06 14:41 31.45609 -91.91265 33946 ft 366 kts 251°
2026-05-06 14:42 31.43744 -91.96825 33954 ft 367 kts 251°
2026-05-06 14:42 31.41877 -92.02377 33956 ft 366 kts 251°
2026-05-06 14:43 31.40005 -92.07917 33962 ft 366 kts 251°
2026-05-06 14:43 31.38129 -92.13452 33966 ft 366 kts 251°
2026-05-06 14:44 31.36257 -92.18991 33974 ft 366 kts 251°
2026-05-06 14:45 31.33451 -92.27254 33975 ft 366 kts 251°
2026-05-06 14:45 31.31570 -92.32786 33991 ft 366 kts 251°
2026-05-06 14:46 31.29690 -92.38307 33985 ft 365 kts 251°
2026-05-06 14:46 31.27813 -92.43825 33987 ft 365 kts 251°
2026-05-06 14:47 31.25935 -92.49332 33985 ft 365 kts 250°
2026-05-06 14:47 31.23669 -92.54651 33985 ft 366 kts 246°
2026-05-06 14:48 31.21335 -92.59933 33943 ft 366 kts 246°
2026-05-06 14:48 31.18994 -92.65223 33941 ft 367 kts 246°
2026-05-06 14:49 31.16651 -92.70531 33958 ft 368 kts 246°
2026-05-06 14:49 31.14302 -92.75839 33966 ft 368 kts 246°
2026-05-06 14:50 31.11951 -92.81142 33970 ft 368 kts 246°
2026-05-06 14:50 31.09618 -92.86402 33965 ft 367 kts 246°
2026-05-06 14:51 31.07265 -92.91693 33956 ft 367 kts 246°
2026-05-06 14:51 31.04914 -92.96982 33954 ft 367 kts 246°
2026-05-06 14:52 31.02556 -93.02274 33949 ft 368 kts 246°
2026-05-06 14:52 31.00190 -93.07566 33945 ft 368 kts 245°
2026-05-06 14:53 30.97822 -93.12852 33949 ft 368 kts 245°
2026-05-06 14:53 30.95455 -93.18140 33950 ft 368 kts 245°
2026-05-06 14:54 30.93084 -93.23424 33953 ft 368 kts 245°
2026-05-06 14:54 30.90716 -93.28704 33935 ft 368 kts 245°
2026-05-06 14:55 30.88345 -93.33992 33938 ft 369 kts 245°
2026-05-06 14:55 30.85983 -93.39243 33941 ft 369 kts 245°
2026-05-06 14:56 30.83594 -93.44534 33944 ft 369 kts 245°
2026-05-06 14:56 30.81202 -93.49829 33942 ft 370 kts 245°
2026-05-06 14:57 30.78808 -93.55121 33937 ft 370 kts 245°
2026-05-06 14:57 30.76409 -93.60417 33934 ft 370 kts 245°
2026-05-06 14:58 30.74010 -93.65710 33930 ft 370 kts 245°
2026-05-06 14:58 30.71608 -93.71003 33926 ft 370 kts 245°
2026-05-06 14:59 30.69205 -93.76296 33937 ft 370 kts 245°
2026-05-06 14:59 30.66797 -93.81589 33923 ft 370 kts 245°
2026-05-06 15:00 30.64383 -93.86872 33931 ft 370 kts 245°
2026-05-06 15:00 30.61969 -93.92150 33932 ft 370 kts 245°
2026-05-06 15:01 30.59964 -93.96539 33932 ft 370 kts 245°
2026-05-06 15:01 30.57549 -94.01814 33929 ft 370 kts 245°
2026-05-06 15:02 30.54742 -94.07944 33923 ft 370 kts 245°
2026-05-06 15:02 30.52723 -94.12360 33908 ft 370 kts 245°
2026-05-06 15:03 30.50304 -94.17630 33914 ft 370 kts 245°
2026-05-06 15:03 30.47879 -94.22898 33929 ft 370 kts 245°
2026-05-06 15:04 30.45449 -94.28158 33919 ft 370 kts 245°
2026-05-06 15:04 30.43038 -94.33380 33928 ft 370 kts 244°
2026-05-06 15:05 30.40609 -94.38635 33924 ft 370 kts 244°
2026-05-06 15:05 30.38178 -94.43889 33926 ft 370 kts 244°
2026-05-06 15:06 30.35741 -94.49143 33927 ft 370 kts 244°
2026-05-06 15:06 30.33301 -94.54389 33917 ft 370 kts 244°
2026-05-06 15:07 30.30872 -94.59629 33893 ft 370 kts 244°
2026-05-06 15:07 30.28434 -94.64875 33890 ft 370 kts 244°
2026-05-06 15:08 30.25988 -94.70119 33898 ft 371 kts 244°
2026-05-06 15:08 30.23870 -94.74664 33902 ft 371 kts 244°
2026-05-06 15:09 30.21418 -94.79918 33914 ft 371 kts 244°
2026-05-06 15:09 30.18962 -94.85166 33905 ft 371 kts 244°
2026-05-06 15:10 30.16509 -94.90415 33904 ft 371 kts 244°
2026-05-06 15:10 30.14046 -94.95656 33909 ft 371 kts 244°
2026-05-06 15:11 30.11583 -95.00886 33912 ft 371 kts 244°
2026-05-06 15:11 30.09124 -95.06114 33909 ft 370 kts 244°
2026-05-06 15:12 30.06682 -95.11310 33912 ft 371 kts 244°
2026-05-06 15:12 30.04221 -95.16539 33912 ft 370 kts 244°
2026-05-06 15:13 30.01759 -95.21756 33898 ft 370 kts 244°
2026-05-06 15:13 29.99293 -95.26972 33876 ft 371 kts 244°
2026-05-06 15:14 29.96816 -95.32197 33885 ft 372 kts 244°
2026-05-06 15:14 29.95024 -95.37744 33896 ft 371 kts 256°
2026-05-06 15:15 29.93826 -95.43527 33897 ft 371 kts 256°
2026-05-06 15:15 29.92606 -95.49316 33885 ft 371 kts 256°
2026-05-06 15:16 29.91393 -95.55057 33894 ft 371 kts 256°
2026-05-06 15:16 29.90169 -95.60838 33891 ft 371 kts 256°
2026-05-06 15:17 29.88945 -95.66627 33868 ft 372 kts 256°
2026-05-06 15:17 29.87719 -95.72423 33895 ft 372 kts 255°
2026-05-06 15:18 29.86494 -95.78201 33918 ft 371 kts 255°
2026-05-06 15:18 29.85263 -95.83971 33924 ft 371 kts 255°
2026-05-06 15:19 29.84030 -95.89741 33924 ft 371 kts 255°
2026-05-06 15:19 29.82793 -95.95511 33923 ft 371 kts 255°
2026-05-06 15:20 29.81557 -96.01283 33917 ft 371 kts 255°
2026-05-06 15:20 29.80316 -96.07052 33884 ft 371 kts 255°
2026-05-06 15:21 29.79069 -96.12819 33860 ft 371 kts 255°
2026-05-06 15:21 29.78070 -96.18645 33841 ft 373 kts 265°
2026-05-06 15:22 29.78418 -96.24649 33842 ft 377 kts 271°
2026-05-06 15:22 29.78868 -96.30618 33845 ft 377 kts 270°
2026-05-06 15:23 29.79311 -96.36632 33836 ft 377 kts 270°
2026-05-06 15:23 29.79752 -96.42650 33826 ft 377 kts 270°
2026-05-06 15:24 29.80192 -96.48667 33815 ft 377 kts 270°
2026-05-06 15:24 29.80632 -96.54692 33798 ft 378 kts 270°
2026-05-06 15:25 29.81083 -96.60715 33752 ft 378 kts 270°
2026-05-06 15:25 29.81530 -96.66739 33755 ft 378 kts 270°
2026-05-06 15:26 29.81972 -96.72769 33768 ft 378 kts 270°
2026-05-06 15:26 29.82189 -96.75770 33572 ft 373 kts 270°
2026-05-06 15:26 29.82402 -96.78697 33375 ft 361 kts 270°
2026-05-06 15:26 29.82609 -96.81550 32988 ft 355 kts 270°
2026-05-06 15:27 29.82812 -96.84373 32349 ft 355 kts 270°
2026-05-06 15:27 29.83016 -96.87279 30963 ft 374 kts 270°
2026-05-06 15:27 29.83230 -96.90346 29795 ft 390 kts 270°
2026-05-06 15:27 29.83454 -96.93429 29472 ft 380 kts 270°
2026-05-06 15:28 29.83680 -96.96419 29131 ft 371 kts 270°
2026-05-06 15:28 29.83898 -96.99358 28755 ft 364 kts 270°
2026-05-06 15:28 29.84104 -97.02207 28622 ft 351 kts 269°
2026-05-06 15:28 29.84300 -97.04956 28440 ft 339 kts 269°
2026-05-06 15:29 29.84487 -97.07635 28064 ft 333 kts 269°
2026-05-06 15:29 29.84669 -97.10277 27606 ft 329 kts 269°
2026-05-06 15:29 29.84851 -97.12897 27129 ft 327 kts 269°
2026-05-06 15:29 29.85031 -97.15496 26658 ft 324 kts 269°
2026-05-06 15:30 29.85208 -97.18076 26186 ft 322 kts 269°
2026-05-06 15:30 29.85385 -97.20643 25724 ft 321 kts 269°
2026-05-06 15:30 29.85560 -97.23196 25261 ft 319 kts 269°
2026-05-06 15:30 29.85736 -97.25734 24821 ft 317 kts 269°
2026-05-06 15:31 29.85912 -97.28261 24403 ft 316 kts 269°
2026-05-06 15:31 29.86085 -97.30772 24001 ft 314 kts 269°
2026-05-06 15:31 29.86252 -97.33239 23600 ft 312 kts 269°
2026-05-06 15:32 29.86591 -97.38201 22655 ft 309 kts 269°
2026-05-06 15:32 29.86761 -97.40664 22189 ft 308 kts 269°
2026-05-06 15:32 29.86930 -97.43113 21726 ft 306 kts 269°
2026-05-06 15:32 29.87097 -97.45554 21251 ft 305 kts 269°
2026-05-06 15:33 29.87261 -97.47982 20815 ft 304 kts 269°
2026-05-06 15:33 29.87425 -97.50403 20410 ft 302 kts 269°
2026-05-06 15:33 29.87586 -97.52814 19991 ft 301 kts 269°
2026-05-06 15:33 29.87746 -97.55215 19571 ft 300 kts 269°
2026-05-06 15:34 29.87905 -97.57608 19162 ft 299 kts 269°
2026-05-06 15:34 29.88063 -97.59993 18783 ft 298 kts 269°
2026-05-06 15:34 29.88221 -97.62374 18360 ft 298 kts 268°
2026-05-06 15:34 29.88379 -97.64751 17940 ft 297 kts 268°
2026-05-06 15:35 29.88538 -97.67121 17492 ft 296 kts 269°
2026-05-06 15:35 29.88694 -97.69486 17064 ft 295 kts 269°
2026-05-06 15:35 29.88847 -97.71841 16658 ft 294 kts 269°
2026-05-06 15:35 29.89003 -97.74187 16268 ft 293 kts 269°
2026-05-06 15:36 29.89155 -97.76489 15875 ft 291 kts 269°
2026-05-06 15:36 29.89305 -97.78813 15475 ft 290 kts 269°
2026-05-06 15:36 29.89456 -97.81163 15076 ft 290 kts 269°
2026-05-06 15:36 29.89600 -97.83441 14696 ft 289 kts 269°
2026-05-06 15:37 29.89668 -97.85742 14313 ft 284 kts 260°
2026-05-06 15:37 29.89201 -97.87921 13930 ft 279 kts 247°
2026-05-06 15:37 29.88511 -97.90016 13504 ft 280 kts 247°
2026-05-06 15:37 29.87818 -97.92113 13076 ft 280 kts 247°
2026-05-06 15:38 29.87128 -97.94203 12647 ft 279 kts 248°
2026-05-06 15:38 29.86442 -97.96292 12238 ft 279 kts 247°
2026-05-06 15:38 29.85737 -97.98405 11545 ft 288 kts 247°
2026-05-06 15:38 29.85000 -98.00592 10824 ft 298 kts 247°
2026-05-06 15:39 29.84242 -98.02840 10255 ft 302 kts 248°
2026-05-06 15:39 29.83445 -98.05084 9795 ft 303 kts 245°
2026-05-06 15:39 29.82589 -98.07301 9309 ft 303 kts 244°
2026-05-06 15:39 29.81708 -98.09503 8853 ft 303 kts 244°
2026-05-06 15:40 29.80817 -98.11707 8398 ft 304 kts 244°
2026-05-06 15:40 29.79925 -98.13915 7937 ft 304 kts 244°
2026-05-06 15:40 29.79038 -98.16122 7503 ft 303 kts 244°
2026-05-06 15:40 29.78183 -98.18264 7119 ft 286 kts 245°
2026-05-06 15:41 29.77378 -98.20285 6705 ft 271 kts 245°
2026-05-06 15:41 29.76624 -98.22182 6284 ft 258 kts 244°
2026-05-06 15:41 29.75666 -98.23853 5885 ft 245 kts 224°